Date String (YYYY-MM-DD hh:mm:ss) UTC,Instrument flags,Ambient pressure (hPa),Sample flow (lpm),Bypass flow (lpm),Sample temperature (°C),Ambient temperature (°C),ASC tube jacket temperature (°C),LED temperature (°C),Box temperature (°C),Sample RH (%),Span deviation,Mass concentration (μg/m³),Mass concentration (μg/m³),Mass concentration (μg/m³)
DateTimeUTC,F1_M11,P_M11,Q1_M11,Q2_M11,T1_M11,T2_M11,T3_M11,T4_M11,T5_M11,U1_M11,ZSPAN_M11,X0_M11,X2_M11,X1_M11
2021-09-20 10:00:00,,0824.0,5.00,0.00,29.7,28.9,00.0,38.8,31.3,19.3,0000.0,0010.73,0004.50,0003.50
2021-09-20 10:01:00,,0824.0,4.99,0.00,29.6,28.9,00.0,38.8,31.4,19.3,0000.0,0011.42,0004.81,0003.70
2021-09-20 10:02:00,,0824.1,5.01,0.00,29.6,28.9,00.0,38.8,31.4,19.3,0000.0,0012.63,0005.06,0003.89
2021-09-20 10:03:00,,0824.1,4.99,0.00,29.6,28.8,00.0,38.8,31.4,19.4,0000.0,0013.22,0005.20,0004.00
2021-09-20 10:04:00,,0824.1,5.00,0.00,29.6,28.8,00.0,38.8,31.3,19.2,0000.0,0014.41,0005.28,0004.06
2021-09-20 10:05:00,,0824.2,5.00,0.00,29.6,28.8,00.0,38.8,31.3,19.6,0000.0,0015.32,0005.51,0004.23
2021-09-20 10:06:00,,0824.2,5.00,0.00,29.6,28.8,00.0,38.8,31.3,19.2,0000.0,0016.48,0005.85,0004.48
2021-09-20 10:07:00,,0824.3,5.00,0.00,29.6,28.8,00.0,38.8,31.3,18.9,0000.0,0017.63,0005.97,0004.56
2021-09-20 10:08:00,,0824.4,4.99,0.00,29.6,28.8,00.0,38.8,31.3,18.6,0000.0,0018.45,0005.95,0004.56
2021-09-20 10:09:00,,0824.4,5.00,0.00,29.5,28.8,00.0,38.8,31.2,18.9,0000.6,0017.71,0005.90,0004.53
2021-09-20 10:10:00,,0824.3,5.00,0.00,29.5,28.7,00.0,38.7,31.2,18.7,0000.0,0018.35,0005.89,0004.50
2021-09-20 10:11:00,,0824.2,4.99,0.00,29.5,28.7,00.0,38.7,31.2,18.8,0000.0,0018.62,0005.82,0004.46
2021-09-20 10:12:00,,0824.1,5.01,0.00,29.5,28.7,00.0,38.7,31.2,18.5,0000.0,0018.45,0005.72,0004.41
2021-09-20 10:13:00,,0824.2,4.99,0.00,29.5,28.7,00.0,38.7,31.3,18.1,0000.0,0018.11,0005.57,0004.29
2021-09-20 10:14:00,,0824.1,5.01,0.00,29.5,28.7,00.0,38.7,31.3,18.1,0000.0,0017.55,0005.41,0004.17
2021-09-20 10:15:00,,0824.0,5.00,0.00,29.5,28.7,00.0,38.7,31.2,18.0,0000.0,0016.59,0005.39,0004.12
2021-09-20 10:16:00,,0824.0,5.00,0.00,29.5,28.7,00.0,38.7,31.2,17.7,0000.0,0015.45,0005.03,0003.87
2021-09-20 10:17:00,,0824.0,5.00,0.00,29.5,28.7,00.0,38.7,31.2,17.8,0000.0,0014.05,0004.61,0003.55
2021-09-20 10:18:00,,0824.0,5.00,0.00,29.5,28.7,00.0,38.7,31.1,17.8,0000.0,0012.69,0004.37,0003.37
2021-09-20 10:19:00,,0823.9,5.01,0.00,29.5,28.7,00.0,38.7,31.1,18.2,0000.0,0010.83,0004.15,0003.22
2021-09-20 10:20:00,,0823.6,4.99,0.00,29.4,28.7,00.0,38.7,31.1,17.7,0000.0,0010.19,0003.93,0003.04
2021-09-20 10:21:00,,0823.3,5.00,0.00,29.4,28.6,00.0,38.7,31.1,17.4,0000.0,0008.88,0003.58,0002.63
2021-09-20 10:22:00,,0823.3,5.01,0.00,29.4,28.6,00.0,38.6,31.1,17.9,0000.0,0008.38,0003.30,0002.29
2021-09-20 10:23:00,,0823.6,5.00,0.00,29.4,28.7,00.0,38.6,31.1,17.8,0000.0,0008.26,0003.12,0002.03
2021-09-20 10:24:00,,0824.0,4.99,0.00,29.4,28.7,00.0,38.6,31.1,17.8,0000.0,0007.81,0002.93,0001.92
2021-09-20 10:25:00,,0824.1,5.01,0.00,29.4,28.7,00.0,38.6,31.1,17.8,0000.0,0007.20,0002.72,0001.79
2021-09-20 10:26:00,,0824.2,4.98,0.00,29.4,28.7,00.0,38.6,31.1,17.8,0000.0,0006.43,0002.46,0001.62
2021-09-20 10:27:00,,0824.2,5.00,0.00,29.4,28.6,00.0,38.6,31.1,17.7,0000.0,0006.61,0002.31,0001.52
2021-09-20 10:28:00,,0824.2,5.01,0.00,29.4,28.6,00.0,38.6,31.1,17.7,0000.0,0006.34,0002.15,0001.43
2021-09-20 10:29:00,,0824.3,4.98,0.00,29.4,28.6,00.0,38.6,31.1,17.7,0000.0,0006.00,0001.93,0001.28
2021-09-20 10:30:00,,0824.3,5.00,0.00,29.4,28.6,00.0,38.6,31.1,17.7,0000.0,0005.52,0001.66,0001.11
2021-09-20 10:31:00,,0824.4,5.00,0.00,29.4,28.6,00.0,38.6,31.1,17.8,0000.0,0005.22,0001.43,0000.93
2021-09-20 10:32:00,,0824.4,4.98,0.00,29.4,28.6,00.0,38.6,31.1,17.5,0000.0,0005.41,0001.47,0000.92
2021-09-20 10:33:00,,0824.5,5.02,0.00,29.4,28.6,00.0,38.6,31.1,16.9,0000.0,0004.58,0001.36,0000.87
2021-09-20 10:34:00,,0824.4,4.99,0.00,29.4,28.6,00.0,38.6,31.1,17.0,0000.0,0003.82,0001.16,0000.74
2021-09-20 10:35:00,,0824.4,5.00,0.00,29.4,28.6,00.0,38.6,31.1,17.0,0000.0,0002.51,0001.00,0000.62
2021-09-20 10:36:00,,0824.4,5.02,0.00,29.4,28.6,00.0,38.6,31.1,16.9,0000.0,0002.32,0000.88,0000.53
2021-09-20 10:37:00,,0824.5,4.98,0.00,29.4,28.6,00.0,38.6,31.1,16.8,0000.0,0001.87,0000.73,0000.44
2021-09-20 10:38:00,,0824.7,5.00,0.00,29.4,28.6,00.0,38.6,31.1,16.9,0000.0,0001.23,0000.64,0000.39
2021-09-20 10:39:00,,0824.6,5.01,0.00,29.4,28.6,00.0,38.6,31.1,16.8,0000.0,0001.19,0000.60,0000.36
2021-09-20 10:40:00,,0824.7,4.99,0.00,29.4,28.6,00.0,38.6,31.1,16.8,0000.0,0001.17,0000.59,0000.35
2021-09-20 10:41:00,,0824.7,5.00,0.00,29.4,28.7,00.0,38.6,31.2,16.7,0000.0,0001.20,0000.58,0000.33
2021-09-20 10:42:00,,0824.8,5.01,0.00,29.5,28.7,00.0,38.6,31.2,16.7,0000.0,0001.08,0000.53,0000.30
2021-09-20 10:43:00,,0824.8,4.99,0.00,29.5,28.7,00.0,38.6,31.2,16.7,0000.0,0000.83,0000.44,0000.27
2021-09-20 10:44:00,,0824.9,5.01,0.00,29.5,28.7,00.0,38.6,31.2,16.6,0000.0,0000.79,0000.42,0000.25
2021-09-20 10:45:00,,0824.9,4.99,0.00,29.5,28.7,00.0,38.6,31.2,16.4,0000.0,0000.64,0000.40,0000.24
2021-09-20 10:46:00,,0825.0,4.99,0.00,29.5,28.7,00.0,38.6,31.2,16.2,0000.0,0000.63,0000.41,0000.26
2021-09-20 10:47:00,,0825.1,5.01,0.00,29.5,28.7,00.0,38.6,31.2,16.4,0000.0,0000.70,0000.43,0000.26
2021-09-20 10:48:00,,0825.0,4.99,0.00,29.5,28.7,00.0,38.6,31.3,16.3,0000.0,0000.78,0000.47,0000.27
2021-09-20 10:49:00,,0824.9,5.00,0.00,29.5,28.7,00.0,38.6,31.2,16.2,0000.0,0000.94,0000.49,0000.28
2021-09-20 10:50:00,,0824.9,5.01,0.00,29.6,28.7,00.0,38.6,31.3,16.1,0000.0,0000.94,0000.49,0000.29
2021-09-20 10:51:00,,0825.0,5.00,0.00,29.6,28.8,00.0,38.7,31.3,16.1,0000.0,0000.93,0000.50,0000.31
2021-09-20 10:52:00,,0825.1,5.00,0.00,29.6,28.8,00.0,38.7,31.3,16.2,0000.0,0001.29,0000.50,0000.32
2021-09-20 10:53:00,,0825.1,4.99,0.00,29.6,28.8,00.0,38.7,31.4,16.1,0000.0,0001.36,0000.49,0000.33
2021-09-20 10:54:00,,0825.0,5.01,0.00,29.6,28.8,00.0,38.7,31.4,16.2,0000.0,0001.93,0000.49,0000.33
2021-09-20 10:55:00,,0825.1,4.99,0.00,29.6,28.8,00.0,38.7,31.4,16.2,0000.0,0002.23,0000.49,0000.33
2021-09-20 10:56:00,,0825.1,5.01,0.00,29.7,28.9,00.0,38.7,31.4,16.2,0000.0,0002.29,0000.51,0000.33
2021-09-20 10:57:00,,0825.2,4.99,0.00,29.7,28.9,00.0,38.7,31.4,16.2,0000.0,0002.27,0000.50,0000.32
2021-09-20 10:58:00,,0825.3,5.00,0.00,29.7,28.9,00.0,38.7,31.4,16.0,0000.0,0002.33,0000.50,0000.33
2021-09-20 10:59:00,,0825.3,5.00,0.00,29.7,28.9,00.0,38.7,31.4,15.9,0000.0,0002.39,0000.49,0000.33
